sat.trackr.live / text

‹ back to catalog

STARLINK-31792

NORAD 60132 · 2024-118V

PAYLOAD ACTIVE UNKNOWN

§ Identity

Operator
Country
US
Launch date
2024-06-24
Launch site
AFWTR
Launch vehicle
Mass (kg)
RCS (m²)

Purposes: comms

External: N2YO · Heavens-Above · Gunter

§ Orbital elements

Epoch: 2026-05-25T01:42:09.762912Z

Period
94.11 min
Inclination
53.1625°
Eccentricity
0.0001641
Mean motion
15.30182581 rev/d
Perigee alt
474.1 km
Apogee alt
476.4 km
Semi-major
6,853.4 km
B*
8.3029e-5
RAAN
29.5500°
Arg perigee
83.3959°
Mean anomaly
276.7229°
Rev number
10,742

§ Raw data

STARLINK-317921 60132U 24118V   26145.07094633  .00002099  00000+0  83029-4 0  99932 60132  53.1625  29.5500 0001641  83.3959 276.7229 15.30182581107429

JSON: /api/v1/satellites/60132 · /tle

For live sub-satellite position, see the globe view (requires WebGL).

§ Visibility from observer

Set your observer location to see the next 7 days of passes ≥ 10°. The values pass through the URL so the page stays shareable.

No JS? Fill the form by hand. The geolocation button needs JavaScript.